Blytheville Muni Airport, AR

12:25 PM CDT on September 23, 2017 (GMT -0500)
Blytheville Municipal

Weather History for KHKA - December, 2011

Change the Weather History Date:

Friday, December 9, 2011

  Actual Average Record
Temperature  
Mean Temperature 39 °F -  
Max Temperature 48 °F 52 °F 70 °F (1939)
Min Temperature 30 °F 34 °F 10 °F (1937)
Degree Days  
Heating Degree Days 26    
Moisture  
Dew Point 31 °F    
Average Humidity 79    
Maximum Humidity 89    
Minimum Humidity 54    
Precipitation  
Precipitation 0.00 in - - ()
Sea Level Pressure  
Sea Level Pressure 30.35 in    
Wind  
Wind Speed 7 mph (NNW)    
Max Wind Speed 22 mph    
Max Gust Speed -    
Visibility 8 miles    
Events Snow    
Averages and records for this station are not official NWS values.
T = Trace of Precipitation, MM = Missing Value Source: NWS Daily Summary

Daily Weather History Graph

Daily Weather History Graph

Search for Another Location

Airport or City:

Trip Planner

Search our weather history database for the weather conditions in past years. The results will help you decide how hot, cold, wet, or windy it might be!

Date:

Astronomy

Dec. 09, 2011 Rise Set
Actual Time 6:57 AM CST 4:45 PM CST
Civil Twilight 6:29 AM CST 5:13 PM CST
Nautical Twilight 5:57 AM CST 5:45 PM CST
Astronomical Twilight 5:26 AM CST 6:16 PM CST
Moon 4:09 PM CST (12/9) 6:05 AM CST (12/9)
Length of Visible Light 10h 44m
Length of Day
9h 47m
Waxing Gibbous, 99% of the Moon is Illuminated
Dec 9
Waxing Gibbous
Dec 10
Full
Dec 17
Last Quarter
Dec 24
New
Jan 1
First Quarter

Hourly Weather History & Observations

Time (CST) Temp. Windchill Dew Point Humidity Pressure Visibility Wind Dir Wind Speed Gust Speed Precip Events Conditions
12:53 AM 33.1 °F 28.7 °F 28.0 °F 82% 30.26 in 10.0 mi SSW 4.6 mph - N/A   Clear
1:53 AM 32.0 °F 28.7 °F 28.0 °F 85% 30.26 in 10.0 mi SSW 3.5 mph - N/A   Clear
2:53 AM 32.0 °F 27.5 °F 28.9 °F 88% 30.25 in 9.0 mi South 4.6 mph - N/A   Clear
3:53 AM 32.0 °F 27.5 °F 28.0 °F 85% 30.26 in 10.0 mi South 4.6 mph - N/A   Clear
4:53 AM 32.0 °F 26.4 °F 28.0 °F 85% 30.26 in 9.0 mi South 5.8 mph - N/A   Clear
5:53 AM 30.9 °F 26.2 °F 28.0 °F 89% 30.27 in 7.0 mi South 4.6 mph - N/A   Clear
6:53 AM 32.0 °F 26.4 °F 28.0 °F 85% 30.29 in 8.0 mi SSW 5.8 mph - N/A   Clear
7:53 AM 33.1 °F - 30.0 °F 89% 30.30 in 7.0 mi Calm Calm - N/A   Clear
9:53 AM 39.9 °F 35.8 °F 34.0 °F 79% 30.32 in 9.0 mi West 5.8 mph - N/A   Clear
10:53 AM 43.0 °F 40.3 °F 34.0 °F 71% 30.33 in 10.0 mi SW 4.6 mph - N/A   Clear
11:53 AM 45.0 °F 42.6 °F 33.1 °F 63% 30.32 in 10.0 mi NW 4.6 mph - N/A   Clear
12:53 PM 48.0 °F - 34.0 °F 58% 30.31 in 10.0 mi North 5.8 mph - N/A   Clear
1:53 PM 46.9 °F - 30.9 °F 54% 30.31 in 10.0 mi NNW 3.5 mph - N/A   Clear
2:53 PM 46.9 °F - 35.1 °F 63% 30.32 in 10.0 mi North 11.5 mph - N/A   Clear
3:53 PM 44.1 °F 37.4 °F 35.1 °F 71% 30.35 in 10.0 mi North 13.8 mph - N/A   Partly Cloudy
4:53 PM 39.9 °F 30.0 °F 34.0 °F 79% 30.38 in 6.0 mi NNE 21.9 mph - N/A   Haze
5:53 PM 37.0 °F 27.7 °F 32.0 °F 82% 30.41 in 6.0 mi NNE 16.1 mph - 0.00 in Snow Light Snow
6:53 PM 35.1 °F 25.2 °F 30.0 °F 82% 30.43 in 6.0 mi NNE 16.1 mph - 0.00 in Snow Light Snow
7:53 PM 34.0 °F 26.0 °F 30.0 °F 85% 30.45 in 7.0 mi NNE 10.4 mph - 0.00 in   Clear
8:53 PM 33.1 °F 24.9 °F 28.9 °F 85% 30.46 in 7.0 mi North 10.4 mph - N/A   Clear
9:53 PM 34.0 °F 25.5 °F 30.0 °F 85% 30.48 in 7.0 mi North 11.5 mph - 0.00 in Snow Light Snow
10:53 PM 30.9 °F 24.3 °F 28.0 °F 89% 30.49 in 6.0 mi North 6.9 mph - 0.00 in   Clear
11:53 PM 30.9 °F 24.3 °F 28.0 °F 89% 30.49 in 6.0 mi North 6.9 mph - N/A   Clear